Flight Track Log - Related Links

Times and Time Zones

All times are in EDT time to prevent confusion due to time zone crossing. See the N700QA flight status page for this flight to view local times or setup timezone preferences in your user account.

Time Position Orientation Groundspeed Altitude Reporting Facility
EDT Latitude Longitude Course Direction KTS MPH feet Rate Location/Type
Sun 09:33:09 PM 36.6333 -121.9000 127° Southeast 241 277 3,200  Level Northern Cal TRACON
Sun 09:34:09 PM 36.6333 -121.9667 270° West 251 289 6,400 3,000 Climbing Northern Cal TRACON
Sun 09:35:09 PM 36.5833 -121.9500 165° South 243 280 9,200 2,600 Climbing Northern Cal TRACON
Sun 09:36:09 PM 36.5500 -121.8667 116° Southeast 263 303 11,600 2,050 Climbing Northern Cal TRACON
Sun 09:37:09 PM 36.5000 -121.7833 127° Southeast 303 349 13,300 1,632 Climbing Northern Cal TRACON
Sun 09:38:00 PM 36.4494 -121.2601 127° Southeast  Level FlightAware Approximate
Sun 09:38:14 PM 36.4611 -121.6928 118° Southeast 313 360 15,000  Level Oakland Center
Sun 09:39:15 PM 36.4142 -121.5897 119° Southeast 336 387 16,500 1,512 Climbing Oakland Center
Sun 09:40:17 PM 36.3647 -121.4847 120° Southeast 347 399 18,100 1,258 Climbing Oakland Center
Sun 09:41:19 PM 36.3150 -121.3767 120° Southeast 356 410 19,100 1,220 Climbing Oakland Center
Sun 09:42:20 PM 36.2608 -121.2353 115° Southeast 376 433 20,600 1,317 Climbing Oakland Center
Sun 09:43:22 PM 36.2747 -121.1042 82° East 390 449 21,800 1,065 Climbing Oakland Center
Sun 09:44:24 PM 36.2875 -120.9678 83° East 390 449 22,800 927 Climbing Oakland Center
Sun 09:45:25 PM 36.2981 -120.8294 85° East 399 459 23,700 885 Climbing Oakland Center
Sun 09:46:26 PM 36.3131 -120.6889 82° East 406 467 24,600 634 Climbing Oakland Center
Sun 09:47:28 PM 36.3136 -120.5467 90° East 412 474 25,000 244 Climbing Oakland Center
Sun 09:48:29 PM 36.2894 -120.4058 102° East 414 476 25,100 49 Climbing Oakland Center
Sun 09:49:31 PM 36.2047 -120.3153 139° Southeast 413 475 25,100  Level Oakland Center
Sun 09:50:32 PM 36.1028 -120.2511 153° Southeast 412 474 25,100  Level Oakland Center
Sun 09:51:34 PM 35.9772 -120.1736 153° Southeast 415 478 25,100  Level Oakland Center
Sun 09:52:35 PM 35.8728 -120.1122 155° Southeast 416 479 25,100  Level Oakland Center
Sun 09:53:37 PM 35.7658 -120.0481 154° Southeast 419 482 25,100 -49 Level Oakland Center
Sun 09:54:38 PM 35.6592 -119.9853 154° Southeast 420 483 25,000 -63 Descending Oakland Center
Sun 09:55:13 PM 35.5958 -119.9422 151° Southeast 421 484 25,000  Level Los Angeles Center
Sun 09:56:15 PM 35.5008 -119.8511 142° Southeast 429 494 25,000 -435 Level Los Angeles Center
Sun 09:57:17 PM 35.4011 -119.7653 145° Southeast 430 495 24,100 -484 Descending Los Angeles Center
Sun 09:58:19 PM 35.3025 -119.6781 144° Southeast 433 498 24,000 -48 Descending Los Angeles Center
Sun 09:59:21 PM 35.2069 -119.5942 144° Southeast 429 494 24,000  Level Los Angeles Center
Sun 10:00:23 PM 35.1103 -119.5164 147° Southeast 415 478 24,000  Level Los Angeles Center
Sun 10:01:25 PM 34.9994 -119.4208 145° Southeast 410 472 24,000 -48 Level Los Angeles Center
Sun 10:02:28 PM 34.9078 -119.3419 145° Southeast 405 466 23,900 -726 Descending Los Angeles Center
Sun 10:03:29 PM 34.8144 -119.2650 146° Southeast 404 465 22,500 -1,452 Descending Los Angeles Center
Sun 10:04:32 PM 34.7225 -119.1847 144° Southeast 406 467 20,900 -1,632 Descending Los Angeles Center
Sun 10:05:34 PM 34.6231 -119.1019 146° Southeast 402 463 19,100 -1,694 Descending Los Angeles Center
Sun 10:06:36 PM 34.5328 -119.0256 145° Southeast 395 455 17,400 -1,645 Descending Los Angeles Center
Sun 10:07:38 PM 34.4461 -118.9536 146° Southeast 375 432 15,700 -1,403 Descending Los Angeles Center
Sun 10:08:40 PM 34.3583 -118.8831 146° Southeast 370 426 14,500 -1,500 Descending Los Angeles Center
Sun 10:09:42 PM 34.2625 -118.8444 162° South 362 417 12,600 -1,403 Descending Los Angeles Center
Sun 10:10:44 PM 34.1536 -118.7919 158° South 363 418 11,600 -1,210 Descending Los Angeles Center
Sun 10:11:46 PM 34.0783 -118.7214 142° Southeast 325 374 10,100 -823 Descending Los Angeles Center
Sun 10:12:48 PM 34.0556 -118.6256 106° East 299 344 9,900 -726 Descending Los Angeles Center
Sun 10:13:50 PM 34.0319 -118.5336 107° East 281 323 8,600 -1,355 Descending Los Angeles Center
Sun 10:14:52 PM 34.0156 -118.4458 103° East 290 334 7,100 -1,248 Descending Los Angeles Center
Sun 10:15:55 PM 34.0289 -118.3503 80° East 289 333 6,000 -1,392 Descending Los Angeles Center
Sun 10:16:57 PM 34.0303 -118.2567 89° East 247 284 4,200 -1,500 Descending Los Angeles Center
Sun 10:17:59 PM 33.9764 -118.2564 180° South 224 258 2,900 -871 Descending Los Angeles Center
Sun 10:19:01 PM 33.9594 -118.3136 250° West 204 235 2,400 -919 Descending Los Angeles Center
Sun 10:20:03 PM 33.9553 -118.3633 264° West 170 196 1,000 -1,113 Descending Los Angeles Center
Sun 10:21:05 PM 33.9511 -118.4044 263° West 139 160 100 -871 Descending Los Angeles Center
Sun 10:23:00 PM 33.9425 -118.4081 228° Southwest  Level Estimated

Login

Don't have an account? Register now (free) for customized features, flight alerts, and more!